TimeCDT,TemperatureF,Dew PointF,Humidity,Sea Level PressureIn,VisibilityMPH,Wind Direction,Wind SpeedMPH,Gust SpeedMPH,PrecipitationIn,Events,Conditions,WindDirDegrees,DateUTC
12:15 AM,35.6,35.6,100,29.79,4.0,NNE,11.5,-,N/A,,Clear,20,2013-04-07 05:15:00
12:35 AM,33.8,33.8,100,29.80,4.0,Calm,Calm,-,N/A,,Clear,0,2013-04-07 05:35:00
12:55 AM,32.0,32.0,100,29.81,3.0,NNE,6.9,-,N/A,,Scattered Clouds,20,2013-04-07 05:55:00
1:15 AM,32.0,32.0,100,29.82,3.0,North,5.8,-,N/A,,Overcast,10,2013-04-07 06:15:00
1:35 AM,32.0,32.0,100,29.83,2.5,Calm,Calm,-,N/A,,Overcast,0,2013-04-07 06:35:00
1:55 AM,-9999,-9999,N/A,29.83,2.0,NNE,8.1,-,N/A,,Overcast,30,2013-04-07 06:55:00
2:15 AM,30.2,30.2,100,29.84,0.8,NE,5.8,-,N/A,,Overcast,40,2013-04-07 07:15:00
2:35 AM,32.0,32.0,100,29.84,0.2,NNE,5.8,-,N/A,Fog,Light Freezing Fog,30,2013-04-07 07:35:00
2:55 AM,32.0,32.0,100,29.84,0.2,NNE,6.9,-,N/A,Fog,Fog,30,2013-04-07 07:55:00
3:15 AM,32.0,32.0,100,29.84,0.5,NNE,5.8,-,N/A,Fog,Fog,30,2013-04-07 08:15:00
3:35 AM,32.0,32.0,100,29.83,0.8,NE,5.8,-,N/A,,Overcast,50,2013-04-07 08:35:00
3:55 AM,32.0,32.0,100,29.84,0.5,NNE,6.9,-,N/A,,Overcast,30,2013-04-07 08:55:00
4:15 AM,32.0,32.0,100,29.83,1.5,NE,10.4,-,N/A,,Overcast,40,2013-04-07 09:15:00
4:35 AM,32.0,32.0,100,29.83,2.0,NE,6.9,-,N/A,,Overcast,40,2013-04-07 09:35:00
4:55 AM,32.0,32.0,100,29.84,1.2,NE,8.1,-,N/A,,Overcast,40,2013-04-07 09:55:00
5:15 AM,32.0,32.0,100,29.84,0.5,NE,11.5,-,N/A,,Overcast,40,2013-04-07 10:15:00
5:35 AM,32.0,32.0,100,29.85,0.5,NNE,8.1,-,N/A,,Overcast,30,2013-04-07 10:35:00
5:55 AM,-9999,-9999,N/A,29.86,0.5,NNE,8.1,-,N/A,Fog,Light Freezing Fog,30,2013-04-07 10:55:00
6:15 AM,30.2,30.2,100,29.86,0.8,NE,6.9,-,N/A,,Overcast,40,2013-04-07 11:15:00
6:35 AM,-9999,-9999,N/A,29.87,0.8,NNE,5.8,-,N/A,,Overcast,30,2013-04-07 11:35:00
6:55 AM,32.0,32.0,100,29.87,1.2,NE,8.1,-,N/A,,Overcast,50,2013-04-07 11:55:00
7:15 AM,32.0,32.0,100,29.87,0.5,NE,5.8,-,N/A,Fog,Light Freezing Fog,40,2013-04-07 12:15:00
7:35 AM,30.2,30.2,100,29.87,0.2,NE,8.1,-,N/A,Fog,Light Freezing Fog,50,2013-04-07 12:35:00
7:55 AM,32.0,32.0,100,29.89,0.2,ENE,9.2,-,N/A,Fog,Light Freezing Fog,70,2013-04-07 12:55:00
8:15 AM,32.0,32.0,100,29.89,0.2,ENE,10.4,-,N/A,Fog,Light Freezing Fog,60,2013-04-07 13:15:00
8:35 AM,32.0,32.0,100,29.90,0.5,East,6.9,-,N/A,Fog,Light Freezing Fog,80,2013-04-07 13:35:00
8:55 AM,32.0,32.0,100,29.90,0.5,ENE,8.1,-,N/A,,Overcast,60,2013-04-07 13:55:00
9:15 AM,32.0,32.0,100,29.90,1.2,East,9.2,-,N/A,,Overcast,80,2013-04-07 14:15:00
9:35 AM,32.0,32.0,100,29.89,1.5,ENE,11.5,-,N/A,,Overcast,60,2013-04-07 14:35:00
9:55 AM,33.8,33.8,100,29.89,2.0,ENE,9.2,-,N/A,,Overcast,70,2013-04-07 14:55:00
10:15 AM,33.8,33.8,100,29.89,2.0,East,10.4,-,N/A,,Overcast,90,2013-04-07 15:15:00
10:35 AM,35.6,35.6,100,29.87,2.5,East,13.8,-,N/A,,Overcast,80,2013-04-07 15:35:00
10:55 AM,35.6,35.6,100,29.87,3.0,East,15.0,-,N/A,,Overcast,90,2013-04-07 15:55:00
11:15 AM,37.4,35.6,93,29.87,2.5,East,12.7,-,N/A,,Mostly Cloudy,90,2013-04-07 16:15:00
11:35 AM,39.2,37.4,93,29.85,3.0,East,15.0,20.7,N/A,,Mostly Cloudy,80,2013-04-07 16:35:00
11:55 AM,41.0,35.6,81,29.85,4.0,East,17.3,-,N/A,,Haze,100,2013-04-07 16:55:00
12:15 PM,41.0,35.6,81,29.84,6.0,ESE,17.3,-,N/A,,Haze,120,2013-04-07 17:15:00
12:35 PM,41.0,37.4,87,29.84,6.0,ESE,18.4,-,N/A,,Haze,120,2013-04-07 17:35:00
12:55 PM,44.6,37.4,76,29.83,9.0,SE,18.4,-,N/A,,Scattered Clouds,130,2013-04-07 17:55:00
1:15 PM,44.6,37.4,76,29.82,9.0,SE,20.7,-,N/A,,Partly Cloudy,130,2013-04-07 18:15:00
1:35 PM,46.4,37.4,71,29.80,9.0,ESE,18.4,-,N/A,,Partly Cloudy,110,2013-04-07 18:35:00
1:55 PM,48.2,39.2,71,29.79,10.0,ESE,19.6,25.3,N/A,,Scattered Clouds,120,2013-04-07 18:55:00
2:15 PM,50.0,39.2,66,29.79,9.0,ESE,19.6,-,N/A,,Mostly Cloudy,120,2013-04-07 19:15:00
2:35 PM,48.2,39.2,71,29.77,8.0,ESE,18.4,25.3,N/A,,Mostly Cloudy,110,2013-04-07 19:35:00
2:55 PM,51.8,41.0,67,29.76,9.0,ESE,19.6,26.5,N/A,,Scattered Clouds,110,2013-04-07 19:55:00
3:15 PM,51.8,41.0,67,29.75,9.0,SE,18.4,25.3,N/A,,Partly Cloudy,130,2013-04-07 20:15:00
3:35 PM,51.8,41.0,67,29.74,9.0,SE,15.0,21.9,N/A,,Partly Cloudy,130,2013-04-07 20:35:00
3:55 PM,51.8,41.0,67,29.74,9.0,ESE,16.1,21.9,N/A,,Partly Cloudy,120,2013-04-07 20:55:00
4:15 PM,51.8,41.0,67,29.76,9.0,SSE,17.3,-,N/A,,Clear,150,2013-04-07 21:15:00
4:35 PM,50.0,42.8,76,29.75,7.0,SE,10.4,18.4,N/A,,Light Drizzle,140,2013-04-07 21:35:00
4:55 PM,51.8,44.6,76,29.74,8.0,ESE,13.8,-,N/A,,Mostly Cloudy,120,2013-04-07 21:55:00
5:15 PM,51.8,44.6,76,29.74,8.0,SE,12.7,-,N/A,,Partly Cloudy,130,2013-04-07 22:15:00
5:35 PM,51.8,44.6,76,29.73,7.0,ESE,9.2,-,N/A,,Clear,120,2013-04-07 22:35:00
5:55 PM,51.8,44.6,76,29.73,7.0,East,8.1,-,N/A,,Clear,90,2013-04-07 22:55:00
6:15 PM,51.8,46.4,82,29.73,6.0,ESE,10.4,-,N/A,,Haze,110,2013-04-07 23:15:00
6:35 PM,51.8,44.6,76,29.72,7.0,ESE,10.4,16.1,N/A,,Mostly Cloudy,110,2013-04-07 23:35:00
6:55 PM,50.0,46.4,87,29.73,5.0,East,6.9,-,N/A,,Light Drizzle,90,2013-04-07 23:55:00
7:15 PM,48.2,46.4,93,29.74,3.0,Calm,Calm,-,N/A,Rain,Light Rain,0,2013-04-08 00:15:00
7:35 PM,48.2,48.2,100,29.73,3.0,ENE,6.9,-,N/A,Rain,Light Rain,60,2013-04-08 00:35:00
7:55 PM,48.2,48.2,100,29.72,2.5,ENE,9.2,-,0.03,Rain,Light Rain,70,2013-04-08 00:55:00
8:15 PM,48.2,48.2,100,29.71,3.0,ENE,10.4,-,N/A,Rain,Light Rain,70,2013-04-08 01:15:00
8:35 PM,48.2,48.2,100,29.70,4.0,East,10.4,-,N/A,,Light Drizzle,80,2013-04-08 01:35:00
8:55 PM,48.2,48.2,100,29.68,5.0,ENE,16.1,-,0.04,,Light Drizzle,70,2013-04-08 01:55:00
9:15 PM,48.2,48.2,100,29.69,5.0,East,13.8,19.6,N/A,,Overcast,90,2013-04-08 02:15:00
9:35 PM,48.2,48.2,100,29.68,5.0,East,11.5,-,N/A,,Overcast,80,2013-04-08 02:35:00
9:55 PM,48.2,48.2,100,29.68,5.0,East,15.0,-,N/A,,Overcast,90,2013-04-08 02:55:00
10:15 PM,48.2,48.2,100,29.67,5.0,East,13.8,-,N/A,,Overcast,90,2013-04-08 03:15:00
10:35 PM,46.4,46.4,100,29.66,5.0,East,15.0,-,N/A,,Overcast,90,2013-04-08 03:35:00
10:55 PM,48.2,48.2,100,29.65,5.0,East,12.7,-,N/A,,Overcast,90,2013-04-08 03:55:00
11:15 PM,46.4,46.4,100,29.66,4.0,East,9.2,-,N/A,,Overcast,80,2013-04-08 04:15:00
11:35 PM,46.4,46.4,100,29.65,4.0,East,9.2,-,N/A,,Overcast,100,2013-04-08 04:35:00
11:55 PM,48.2,48.2,100,29.65,5.0,East,9.2,-,N/A,,Overcast,100,2013-04-08 04:55:00